STARLINK-34726

Last updated on Wed Aug 27 2025 00:02:05 GMT+0000 (Coordinated Universal Time)

1 64935U 25158D 25237.91670139 .00067168 00000+0 17119-2 0 9991 2 64935 97.6029 100.5624 0001800 94.2065 218.9540 15.39297676 5914

Satellite not in orbit

STARLINK-34726